{"data":{"norad_id":66279,"epoch":"2026-09-20T18:00:34.333632Z","epoch_age_seconds":75056,"freshness":"FRESH","line1":"1 66279U 25247Q   26263.75039738  .00023286  00000+0  69794-3 0  9999","line2":"2 66279  53.1619   2.1958 0001406  43.6331 316.4782 15.34411127 50941","mean_motion":15.34411127,"eccentricity":0.0001406,"inclination_deg":53.1619,"raan_deg":2.1958,"arg_perigee_deg":43.6331,"mean_anomaly_deg":316.4782,"bstar":0.00069794,"rev_number":5094,"period_min":93.847077531001,"perigee_km":461.70835113014,"apogee_km":463.63198610596,"semimajor_km":6840.8071686181,"source":"CELESTRAK","updated_at":"2026-09-21T09:00:35.869724Z"}}